Regional Weather Roundup
Issued by NWS Charleston, SC

Home | Current Version | Previous Version | Text Only | Print | Product List | Glossary On
Versions: 1 2 3 4 5 6 7 8 9 10 11 12 13 14 15 16 17 18 19 20 21 22 23 24 25 26 27 28 29 30 31 32 33 34 35 36 37 38 39 40 41 42 43 44 45 46 47 48 49 50
000
ASUS42 KCHS 270627
RWRCHS

REGIONAL WEATHER ROUNDUP
NATIONAL WEATHER SERVICE CHARLESTON SC
200 AM EDT WED MAY 27 2015

NOTE: "FAIR" INDICATES FEW OR NO CLOUDS BELOW 12,000 FEET WITH NO
SIGNIFICANT WEATHER AND/OR OBSTRUCTIONS TO VISIBILITY.

NOT ALL STATIONS ARE QUALITY CONTROLLED BY THE NATIONAL
WEATHER SERVICE. USE DATA WITH CAUTION...ESPECIALLY
DEWPOINT OBSERVATIONS.

SCZ027-030-031-034>040-042>050-270700-
...SOUTHEAST SOUTH CAROLINA...

CITY           SKY/WX    TMP DP  RH WIND       PRES   REMARKS
N CHARLESTON   CLOUDY    74  71  91 SW5       30.24F
6HR MIN TEMP:  74; 6HR MAX TEMP:  79;

WATERFRONT PAR   N/A     77  73  87 VRB3      30.22F
MOUNT PLEASANT LGT RAIN  73  72  94 S3        30.23F
JOHNS ISLAND   CLOUDY    75  72  88 CALM      30.24F
PINOPOLIS        N/A     77  72  83 CALM      30.16F
MONCKS CORNER  FAIR      73  70  88 CALM      30.22F FOG
SUMMERVILLE    FAIR      72  72 100 CALM      30.23F
BEAUFORT MCAS  CLOUDY    76  71  85 S3        30.23F
6HR MIN TEMP:  75; 6HR MAX TEMP:  80;

BEAUFORT ARPT  FAIR      75  72  88 CALM      30.22F
HILTON HEAD IS CLOUDY    75  72  88 SE5       30.23F
WALTERBORO     CLOUDY    70  70 100 CALM      30.22F
ALLENDALE      FAIR      70  68  94 CALM      30.19F

...SOUTHERN MIDLANDS AND PEE DEE...

CITY           SKY/WX    TMP DP  RH WIND       PRES   REMARKS
GEORGETOWN     NOT AVBL
KINGSTREE      NOT AVBL
ORANGEBURG     CLOUDY    70  67  90 E6        30.21F
6HR MIN TEMP:  69; 6HR MAX TEMP:  81; 6HR PCP: TRACE;

BARNWELL       FAIR      70  70 100 E5        30.20F
AIKEN          FAIR      64  63  94 SE6       30.23F
MANNING        NOT AVBL
COLUMBIA       CLOUDY    70  65  84 E5        30.20F
6HR MIN TEMP:  70; 6HR MAX TEMP:  77; 6HR PCP: TRACE;

SUMTER         CLOUDY    70  68  93 SW2       30.21F
6HR MIN TEMP:  70; 6HR MAX TEMP:  82; 6HR PCP:  0.01;

FLORENCE       CLOUDY    73  70  90 S8        30.23F
6HR MIN TEMP:  73; 6HR MAX TEMP:  81;

MYRTLE BEACH   NOT AVBL
N MYRTLE BEACH NOT AVBL

$$

GAZ063-065-086>088-099>101-113>116-118-119-134>141-150-270700-
...SOUTHEAST GEORGIA...

CITY           SKY/WX    TMP DP  RH WIND       PRES   REMARKS
SAVANNAH ARPT  CLOUDY    73  72  94 S3        30.21F
6HR MIN TEMP:  75; 6HR MAX TEMP:  80;

HUNTER AAF     MOCLDY    74  74 100 SE2       30.20F
6HR MIN TEMP:  73; 6HR MAX TEMP:  79; 6HR PCP:  0.13;

FORT STEWART   CLOUDY    72  67  84 SE5       30.20F
6HR MIN TEMP:  72; 6HR MAX TEMP:  79;

STATESBORO     CLOUDY    69  32  25 SE5       30.20F
SYLVANIA       LGT RAIN  71  70  97 SE3       30.20F
CLAXTON        FAIR      70  68  94 E5        30.19F

...CSRA...CENTRAL AND FAR SOUTHEAST GEORGIA...

CITY           SKY/WX    TMP DP  RH WIND       PRES   REMARKS
THOMSON        CLOUDY    70  70 100 CALM      30.24F
AUGUSTA-BUSH   CLOUDY    68  67  96 CALM      30.19F
6HR MIN TEMP:  68; 6HR MAX TEMP:  79; 6HR PCP:  0.35;

AUGUSTA-DANIEL CLOUDY    70  67  90 SE3       30.20F
SWAINSBORO     FAIR     N/A N/A N/A SE6       30.20R
VIDALIA        CLOUDY    70  68  94 SE3       30.19R
EASTMAN        CLOUDY    69  69 100 S3        30.21F
HAZLEHURST     FAIR      70  70 100 CALM      30.19R
ALMA           CLOUDY    69  68  96 E6        30.18F
6HR MIN TEMP:  69; 6HR MAX TEMP:  70; 6HR PCP:  0.51;

WAYCROSS       CLOUDY    70  70  99 SE6       30.18F
JESUP          FAIR      72  70  94 SE5       30.20F
BAXLEY         FAIR      70  70 100 CALM      30.18F
BRUNSWICK      CLOUDY    77  70  78 SE5       30.21F
SAINT SIMONS   NOT AVBL

$$

SCZ027-028-034-036>038-045-046-048>050-GAZ119-141-270700-
...LAKE AND SUPPLEMENTAL COASTAL OBSERVATIONS...

STATION/POSITION TIME  TEMP    WIND        PRES    WAVE   SWELL
                       AIR SEA DIR/SP/G            HT/PER HT/PER/DIR
                 (UTC) (F)     (DEG/KT/KT) (MB)    (FT/S) (FT/S/D)
UPR LAKE MARION  NOT AVBL
WINYAH BAY       0500   74     240/  3     1024.0
LAKE MURRAY      0500   70     100/  4/  7 1023.4F
ACE BASIN NERRS  NOT AVBL
FORT PULASKI     0600   76                   N/A
SAPELO ISLAND    0600   77     150/  7     1024.0S

$$

ANZ835-935-AMZ111-154-330-350-352-354-370-450-454-472-270700-
...C-MAN AND BUOY OBSERVATIONS...

STATION/POSITION TIME  TEMP    WIND        PRES    WAVE   SWELL
                       AIR SEA DIR/SP/G            HT/PER HT/PER/DIR
                 (UTC) (F)     (DEG/KT/KT) (MB)    (FT/S) (FT/S/D)
BUOY 41004       0550   78 76  170/  8/ 10 1023.5F   3/ 7   3/ 7
BUOY 41008       0550   77 78  160/ 12/ 12 1023.8F   4/ 6   3/110/ 6
FOLLY BEACH CMAN 0600   77     200/  9/ 10 1024.1F
CAPERS NEARSHORE 0508   77     200/  8/ 12 1024.6F
FRIPP NEARSHORE  0500   77     220/  8/ 10 1023.9F


STATION/POSITION TIME  TEMP    WIND        PRES    WAVE   SWELL
                       AIR SEA DIR/SP/G            HT/PER HT/PER/DIR
                 (UTC) (F)     (DEG/KT/KT) (MB)    (FT/S) (FT/S/D)
5E ST. MARYS GA  0521      79                N/A     3/ 6
FRYING PAN BUOY  0550   77 75  180/ 10/ 12 1025.0F   3/ 7   3/120/ 7
BUOY 41025       0550   75 77  190/ 16/ 19 1025.2F   3/ 6   2/ 90/13
CAPE LOOKOUT NC  0600   74     170/ 12/ 14 1024.7F
BUOY 41002       0550   72 74  140/  8/ 12 1025.8F   4/ 6   3/110/ 6
BUOY 41010       0520   78 81   90/ 14/ 16 1023.3F
ST AUGUSTINE FL  0600   77 79  120/  8/  9 1024.1F


$$



USA.gov is the U.S. government's official web portal to all federal, state and local government web resources and services.